DECAYED

CZ-6A DEB, 61473 (Decayed)

Orbit data source: Space-Track

CZ-6A DEB, 61473 was space debris in LEO originally from a launch on Tue, 06 Aug 2024 UTC launched from the Taiyaun Space Center, China (TSC). Debris objects in space refer to the collection of defunct objects orbiting the Earth. Examples of debris include non-operational satellites, rocket bodies, and fragments generated from explosions, collisions, or faulty payload assembly.

Not visible in the next 10 days
Identifier
61473, 2024-140AAF
Orbit
Decayed
Country
Flag of CNCN / PRC
Related business
Manufacturer
SAST
Mission
Decayed spacecraft
Bus & Motor
Unknown
Mass
Unknown
Launch date (UTC)
2024-08-06 (2 years ago)
Launch vehicle
Unknown
Launch site
Taiyaun Space Center, China (TSC)
Object type
Payload
Rocket body
Debris
Shape & HBR
Unknown shape, 0.1 m
Radar Cross Section
Medium (>0.1 m² and <1 m²)

Expand to show TLE details & history
Last TLE update: 9 months ago

TLE from 9 months ago
0 CZ-6A DEB
1 61473U 24140AAF 25263.30633518  .06144383  12674+0  85891-2 0  9990
2 61473  88.3973 278.2319 0017798 229.5106 130.4639 16.12223706 57536
Epoch: 2025-09-20T07:21Z
TLE epoch observation values (Epoch: 2025-09-20T07:21:07.359Z)
Latitude
-0.00001°
Longitude
168.51012°
Altitude
251.729 km
Speed
7.751 km/s
True Right ascension
18h 32m 55s
True Declination
0° 00' 00"
Sunlit
Object was in daylight at epoch
Visualization orbit readout
Latitude
Unknown
Longitude
Unknown
Altitude
Unknown
Speed
Unknown
Apparent Right ascension
Unknown
Apparent Declination
Unknown
Sunlit
N/A
Visualization observer readout
Local Sidereal Time
10:18:40
Azimuth
Unknown
Elevation
Unknown
Doppler factor
Unknown
Orbital elements
Apogee altitude
249.211 km
Perigee altitude
225.662 km
Semi-major axis
6,615.573 km
Eccentricity
0.00178
Inclination
88.3973°
RAAN
278.2319°
Arg. of periapsis
229.5106°
True anomaly
130.61884°
Mean anomaly
130.4639°
Eccentric anomaly
130.54139°
Mean motion
4.03359 °/min
Orbital period
89.25 mins
BSTAR
0.0085891
Loading maneuver chart data...
Computing Atmospheric mass density...
Loading historical data...
Loading historical data...
Loading historical data...
Loading historical data...
Loading historical data...
Loading historical data...
Loading historical data...

Documentation

Showing up to 5 results
|